Time,B instrument,Bx,By,Bz,sigma B,Ion instrument,Status,Tp_par,Tp_perp,carrot,r_sun,clat,clong,earth_he_angle,n_p,vp_x,vp_y,vp_z,vth_p_par,vth_p_perp
1980-10-26 00:15:45,-1,nan,nan,nan,nan,1,3,nan,nan,1700,0.73318386,-5.4298277,48.574738,91.918488,nan,435.483,2.52834,20.4027,nan,nan
1980-10-26 00:58:57,-1,nan,nan,nan,nan,1,3,nan,nan,1700,0.73289943,-5.4329548,48.184143,91.926315,nan,426.968,-29.3766,56.5545,nan,nan
1980-10-26 01:42:09,-1,nan,nan,nan,nan,1,3,nan,nan,1700,0.7326082,-5.4361582,47.797638,91.934341,nan,406.986,-41.6573,31.5216,nan,nan
1980-10-26 02:25:21,-1,nan,nan,nan,nan,1,3,nan,nan,1700,0.73232341,-5.4392872,47.41098,91.942215,nan,404.327,-30.1034,20.7616,nan,nan
1980-10-26 02:58:49,-1,nan,nan,nan,nan,1,3,nan,nan,1700,0.7335372,-5.6358552,46.838196,91.67804,nan,404.319,-30.0954,20.7616,nan,nan
1980-10-26 04:26:46,1,-12.2,-5.95,5.3,2.13131,1,1,63659.9,177493.0,1700,0.73152113,-5.4480896,46.320007,91.964523,10.7403,418.334,-77.8661,53.4601,32.4184,54.1312
1980-10-26 04:28:07,-1,nan,nan,nan,nan,1,4,nan,nan,1700,0.73150784,-5.4482355,46.308655,91.964905,nan,nan,nan,nan,nan,nan
1980-10-26 04:29:28,1,-12.8125,-7.65,4.1125,1.04028,1,1,70004.3,159040.0,1700,0.73150122,-5.448308,46.297119,91.965088,9.81417,414.406,-102.431,8.64855,33.9954,51.2403
1980-10-26 04:29:39,1,-12.9222,-6.31111,4.85556,1.94041,1,1,55410.1,173433.0,1700,0.73150122,-5.448308,46.297119,91.965088,9.71583,409.739,-90.8504,33.6238,30.2449,53.5086
1980-10-26 04:31:00,1,-10.575,-11.525,1.575,1.15027,1,1,71589.8,140048.0,1700,0.73148793,-5.4484539,46.28186,91.965454,9.62762,425.18,-117.319,18.3886,34.3782,48.0835
1980-10-26 04:32:21,1,-8.67778,-12.7111,1.62222,1.87083,1,1,90295.8,139759.0,1700,0.73148131,-5.4485264,46.270325,91.965637,9.44385,431.003,-121.804,22.2312,38.6093,48.0338
1980-10-26 04:33:42,1,-8.17778,-10.6556,7.92222,0.614033,1,1,79075.5,158749.0,1700,0.73147464,-5.4485998,46.258789,91.96582,9.69969,440.874,-114.136,53.6688,36.1309,51.1933
1980-10-26 04:35:03,-1,nan,nan,nan,nan,1,4,nan,nan,1700,0.73146141,-5.4487448,46.247467,91.966202,nan,nan,nan,nan,nan,nan
1980-10-26 04:36:24,1,-7.55,-11.9625,4.2875,4.34004,1,1,84906.4,139379.0,1700,0.73145479,-5.4488182,46.235931,91.966385,9.85207,425.695,-112.058,27.688,37.4393,47.9685
1980-10-26 04:37:45,1,-8.96667,-12.4222,3.25556,1.33491,1,1,87671.1,147148.0,1700,0.73144811,-5.4488907,46.224396,91.966568,10.0322,446.887,-133.426,26.6444,38.044,49.2873
1980-10-26 04:39:06,1,-10.1444,-10.9889,2.33333,3.3713,1,1,88122.7,164484.0,1700,0.73143488,-5.4490366,46.209137,91.966934,11.1014,436.831,-124.578,9.14094,38.1418,52.1099
1980-10-26 04:40:27,1,-12.2875,-8.675,-0.575,1.70216,1,1,79601.8,154437.0,1700,0.73142821,-5.4491091,46.197601,91.967133,9.93214,406.441,-92.7225,2.3878,36.2509,50.4933
1980-10-26 04:41:48,1,-13.9,2.0,2.675,1.52787,1,1,50415.1,167022.0,1700,0.73142159,-5.4491816,46.186066,91.967316,9.58629,405.506,-39.4088,32.3728,28.8495,52.5103
1980-10-26 04:43:09,1,-13.5375,2.525,3.575,1.67365,1,1,52237.2,175671.0,1700,0.7314083,-5.4493275,46.174713,91.967682,9.59605,411.025,-26.5282,36.3947,29.3662,53.8527
1980-10-26 04:44:30,1,-12.6,4.7375,3.65,1.10673,1,1,50066.9,158202.0,1700,0.73140168,-5.4493999,46.163177,91.967865,9.25251,411.783,-10.1722,16.5451,28.7497,51.1051
1980-10-26 04:45:51,1,-9.5375,7.6625,5.375,0.975481,1,1,42521.6,202848.0,1700,0.73139501,-5.4494734,46.151642,91.968048,10.8618,424.848,-3.11151,34.8266,26.4949,57.8686
1980-10-26 04:47:12,1,-8.375,-3.975,9.0875,5.77645,1,1,152230.0,119657.0,1700,0.73138177,-5.4496183,46.136414,91.96843,10.0294,425.588,-0.723053,22.2189,50.1311,44.4454
1980-10-26 04:48:33,1,-11.975,-1.575,8.2875,0.961688,1,1,59607.3,153962.0,1700,0.73137516,-5.4496918,46.124878,91.968613,8.98754,415.207,-59.3396,55.9993,31.3695,50.4156
1980-10-26 04:49:54,1,-11.2375,-1.075,9.4,0.782125,1,1,57300.0,188309.0,1700,0.73136848,-5.4497643,46.113342,91.968796,10.2328,424.99,-57.4268,65.0065,30.7564,55.7562
1980-10-26 04:51:15,1,-11.0125,1.3625,8.925,1.25412,1,1,58449.9,199054.0,1700,0.73135525,-5.4499102,46.10199,91.969162,10.4532,425.511,-46.4089,63.7263,31.0635,57.3249
1980-10-26 04:52:36,1,-12.7875,-0.875,6.75,1.56938,1,1,62277.7,169874.0,1700,0.73134857,-5.4499826,46.090454,91.969345,9.77462,420.056,-34.4773,55.0952,32.0645,52.9568
1980-10-26 04:53:57,1,-13.75,-2.1,4.375,1.0195,1,1,56462.8,177844.0,1700,0.73134196,-5.4500551,46.078918,91.969528,9.85333,405.847,-64.8035,28.754,30.5309,54.1849
1980-10-26 04:55:18,1,-11.7125,-8.1625,3.5,3.12385,1,1,76283.8,158267.0,1700,0.73132867,-5.450201,46.06366,91.96991,10.0503,419.304,-98.7769,28.4455,35.4874,51.1156
1980-10-26 04:56:39,1,-10.5125,-11.0875,0.975,0.976761,1,1,89387.6,175989.0,1700,0.73132205,-5.4502735,46.052124,91.970093,10.0093,430.698,-117.409,18.5855,38.4146,53.9015
1980-10-26 04:58:00,1,-12.6375,-8.4875,1.2375,0.925084,1,1,62095.9,168301.0,1700,0.73130876,-5.4504194,46.040771,91.970459,10.5372,418.156,-99.1921,13.5798,32.0177,52.711
1980-10-26 04:59:21,1,-12.5,-8.8125,0.8625,0.843171,1,1,71399.1,178983.0,1700,0.73130214,-5.4504919,46.029236,91.970642,10.4016,416.631,-98.1021,19.8976,34.3324,54.358
1980-10-26 05:00:42,1,-13.5625,-5.6875,2.6,1.26923,1,1,63322.3,178712.0,1700,0.73129547,-5.4505653,46.017731,91.97084,10.7848,407.396,-79.4698,15.9405,32.3323,54.3168
1980-10-26 05:02:03,1,-13.6,-5.075,1.5125,1.49765,1,1,59455.2,156840.0,1700,0.73128223,-5.4507103,46.006378,91.971207,9.978,404.833,-65.3298,17.6624,31.3294,50.8846
1980-10-26 05:03:24,1,-11.9625,-8.95,-0.2,0.844005,1,1,75702.0,179045.0,1700,0.73127556,-5.4507828,45.990936,91.97139,9.31662,417.388,-99.4443,5.43427,35.3518,54.3674
1980-10-26 05:04:45,1,-12.85,-5.975,-0.9875,2.574,1,1,70429.7,172291.0,1700,0.73126894,-5.4508562,45.979401,91.971573,10.5516,410.433,-83.3749,5.66586,34.0985,53.3321
1980-10-26 05:06:06,1,-12.075,2.7375,2.9875,3.43698,1,1,71595.4,152085.0,1700,0.73125565,-5.4510012,45.968048,91.971954,10.1506,420.5,-3.59824,22.094,34.3796,50.1073
1980-10-26 05:07:27,1,-9.625,-11.675,1.65,1.35785,1,1,68962.6,174771.0,1700,0.73124897,-5.4510746,45.956512,91.972137,10.6045,433.671,-113.762,28.4478,33.7415,53.7146
1980-10-26 05:08:48,1,-10.7444,-10.5889,3.14444,1.01835,1,1,81794.6,146831.0,1700,0.73124236,-5.4511471,45.944977,91.972321,9.74093,423.464,-105.417,30.6563,36.7469,49.2342
1980-10-26 06:08:19,-1,nan,nan,nan,nan,1,3,nan,nan,1700,0.73084372,-5.455512,45.409302,91.983505,nan,423.771,-55.5378,56.73,nan,nan
1980-10-26 06:09:40,1,-11.4889,-2.92222,8.23333,0.960581,1,1,60576.9,162563.0,1700,0.73083711,-5.4555845,45.397766,91.983688,9.93082,411.8,-55.1955,46.9277,31.6236,51.8046
1980-10-26 06:11:01,1,-11.225,-3.0,8.675,0.645174,1,1,60171.0,168772.0,1700,0.73082381,-5.4557295,45.386414,91.98407,9.58444,424.036,-58.1146,59.9914,31.5175,52.7847
1980-10-26 06:12:22,1,-10.6222,-4.23333,8.55556,2.29245,1,1,92560.6,188514.0,1700,0.73081714,-5.4558029,45.374878,91.984253,10.6,434.564,-42.9981,65.4789,39.0905,55.7865
1980-10-26 06:13:45,1,-13.225,-5.4375,3.3,0.706554,1,1,74938.0,158518.0,1700,0.73081052,-5.4558754,45.363342,91.984436,11.1502,409.212,-81.2665,24.4422,35.173,51.1561
1980-10-26 06:15:06,1,-13.3,-2.0125,5.1375,0.760551,1,1,66229.6,163038.0,1700,0.73079723,-5.4560213,45.348114,91.984818,10.1999,410.078,-57.1485,43.0334,33.0662,51.8802
1980-10-26 06:16:27,1,-12.4,1.0375,6.15,0.690901,1,1,65511.2,157790.0,1700,0.73079056,-5.4560938,45.336578,91.985001,10.178,412.59,-37.8467,47.1526,32.8864,51.0385
1980-10-26 06:17:48,1,-11.9375,0.0375,6.8375,1.8787,1,1,62503.2,160479.0,1700,0.73078388,-5.4561663,45.325043,91.985184,9.85668,421.453,-37.28,55.5944,32.1225,51.4715
1980-10-26 06:19:07,1,-12.8375,-0.0875,5.475,0.877674,1,1,59071.0,159174.0,1700,0.73077059,-5.4563122,45.31369,91.985565,9.39676,408.823,-27.7469,35.5318,31.2281,51.2619
1980-10-26 06:23:55,1,-13.5625,-0.925,3.35,0.588828,1,1,59938.8,157290.0,1700,0.730744,-5.4566031,45.271484,91.986313,8.77324,406.304,-52.4676,36.3369,31.4566,50.9576
1980-10-26 06:24:33,1,-13.15,-0.2375,4.1,0.909584,1,1,62646.3,173149.0,1700,0.73217565,-5.6500149,44.992798,91.715454,10.4418,410.225,-38.7275,37.7088,32.1592,53.4647
1980-10-26 06:25:16,1,-13.3889,0.322222,3.36667,0.571979,1,1,55995.4,165279.0,1700,0.73073071,-5.456748,45.260132,91.986694,9.51848,410.837,-34.9088,43.8196,30.4042,52.2355
1980-10-26 06:25:54,1,-13.55,0.55,2.4,1.21552,1,1,49672.7,156214.0,1700,0.73073071,-5.456748,45.252319,91.986694,8.98958,406.594,-30.2652,20.7159,28.6363,50.7829
1980-10-26 06:27:15,1,-12.95,0.0375,4.3625,1.12791,1,1,63096.8,160075.0,1700,0.73071742,-5.4568939,45.240967,91.987061,9.884,405.873,-31.5589,27.843,32.2747,51.4066
1980-10-26 06:28:36,1,-12.8,-0.2,5.05,0.44441,1,1,69852.2,154925.0,1700,0.7307108,-5.4569664,45.229431,91.987244,10.1002,407.616,-37.8351,37.9551,33.9585,50.573
1980-10-26 06:29:57,1,-13.225,-0.2875,3.675,1.17573,1,1,63706.9,156621.0,1700,0.73070413,-5.4570389,45.217926,91.987442,10.0199,407.012,-32.6343,31.9309,32.4303,50.849
1980-10-26 06:31:18,1,-11.5625,-1.3375,7.3625,1.01096,1,1,60981.6,157095.0,1700,0.73069084,-5.4571848,45.206573,91.987808,9.50136,415.829,-48.9415,54.8744,31.7291,50.9259
1980-10-26 06:32:39,1,-12.0,-0.4875,6.5,0.648917,1,1,57866.0,190346.0,1700,0.73068416,-5.4572573,45.191132,91.988007,10.5593,410.396,-31.1913,40.486,30.9079,56.0569
1980-10-26 06:34:00,1,-12.0375,-5.25,6.0625,0.719157,1,1,78081.3,140528.0,1700,0.73067087,-5.4574032,45.179779,91.988373,9.79706,415.673,-69.1774,46.4875,35.9031,48.1659
1980-10-26 06:35:21,1,-12.4375,-4.125,6.1,0.653237,1,1,73867.8,161754.0,1700,0.73066425,-5.4574757,45.168243,91.988556,9.52033,418.208,-55.2841,51.2861,34.9209,51.6755
1980-10-26 06:36:42,1,-10.9375,0.3875,8.525,0.721327,1,1,75157.6,149015.0,1700,0.73065758,-5.4575481,45.156738,91.988754,7.72427,440.71,-7.8559,68.4952,35.2245,49.599
1980-10-26 06:38:03,1,-10.5,2.5,8.1375,1.24292,1,1,61388.0,163005.0,1700,0.73064429,-5.4576941,45.145386,91.98912,9.20156,424.51,-27.1058,63.551,31.8346,51.8751
1980-10-26 06:39:24,1,-11.2375,2.675,6.225,2.34491,1,1,45888.9,151984.0,1700,0.73063767,-5.4577665,45.13385,91.989319,8.40752,417.759,-22.4723,47.855,27.524,50.0906
1980-10-26 06:40:45,1,-8.36667,-2.8,11.0222,0.582672,1,1,62439.6,174668.0,1700,0.73063099,-5.457839,45.118408,91.989502,10.2407,439.186,-48.4522,75.2617,32.1061,53.6988
1980-10-26 06:42:06,-1,nan,nan,nan,nan,1,3,nan,nan,1700,0.7306177,-5.4579849,45.107056,91.989868,nan,446.738,-61.0502,79.0609,nan,nan
1980-10-26 06:43:27,-1,nan,nan,nan,nan,1,3,nan,nan,1700,0.73061109,-5.4580574,45.095551,91.990067,nan,432.982,-58.8752,69.1443,nan,nan
1980-10-26 06:47:30,-1,nan,nan,nan,nan,1,3,nan,nan,1700,0.73058444,-5.4583483,45.061127,91.990814,nan,417.164,-46.3803,56.4486,nan,nan
1980-10-26 06:48:51,-1,nan,nan,nan,nan,1,3,nan,nan,1700,0.73057783,-5.4584208,45.045685,91.990997,nan,413.501,-71.5931,42.1308,nan,nan
1980-10-26 06:50:12,-1,nan,nan,nan,nan,1,3,nan,nan,1700,0.73056453,-5.4585667,45.034363,91.991379,nan,408.222,-49.2091,45.8713,nan,nan
1980-10-26 06:51:33,-1,nan,nan,nan,nan,1,3,nan,nan,1700,0.73055786,-5.4586391,45.022827,91.991562,nan,411.214,-32.4152,45.105,nan,nan
1980-10-26 06:52:54,1,-11.9125,4.3875,2.5625,1.14653,1,1,53138.1,152852.0,1700,0.73055124,-5.4587116,45.011292,91.991745,9.33782,417.448,0.321751,19.4209,29.6183,50.2335
1980-10-26 06:54:15,1,-11.175,4.7,4.7,0.449305,1,1,58180.0,159712.0,1700,0.73053795,-5.4588575,44.999939,91.992126,9.73227,415.257,-8.02436,39.4344,30.9916,51.3484
1980-10-26 06:55:36,1,-10.8125,5.9125,1.025,1.87458,1,1,48077.0,148962.0,1700,0.73053128,-5.45893,44.988403,91.99231,8.84864,422.226,11.902,19.1578,28.1726,49.5902
1980-10-26 06:56:57,1,-12.9375,1.0375,-1.38778e-17,1.2154,1,1,68996.3,164551.0,1700,0.73052466,-5.4590034,44.972961,91.992493,9.44119,404.971,-32.7701,18.6065,33.7498,52.1205
1980-10-26 06:58:18,1,-10.4125,5.8625,-0.5,0.959655,1,1,49078.7,145849.0,1700,0.73051137,-5.4591484,44.961639,91.992874,8.81676,425.208,13.0748,16.54,28.4646,49.0693
1980-10-26 06:59:39,1,-6.575,7.1625,2.5125,4.62956,1,1,66398.0,131013.0,1700,0.73050469,-5.4592209,44.950104,91.993057,9.0906,427.041,14.8167,1.40878,33.1082,46.5066
1980-10-26 07:01:00,1,-9.9875,7.65,1.85,0.941326,1,1,44705.2,111889.0,1700,0.7304914,-5.4593668,44.938751,91.993439,8.25572,422.254,12.297,26.3121,27.1667,42.9785
1980-10-26 07:02:21,1,-12.5625,3.175,3.85,0.757772,1,1,39617.8,119269.0,1700,0.73048472,-5.4594393,44.927216,91.993622,7.49431,407.331,-14.0093,41.3393,25.5743,44.3733
1980-10-26 07:03:42,1,-11.4875,3.75,3.875,2.99257,1,1,57224.6,139085.0,1700,0.73047811,-5.4595127,44.91571,91.99382,9.23867,417.888,5.97404,35.5408,30.7361,47.9179
1980-10-26 07:05:03,1,-13.0,2.45,0.4,0.908295,1,1,38857.4,136222.0,1700,0.73046476,-5.4596577,44.900452,91.994186,8.6095,406.442,-14.9022,23.1707,25.3276,47.4221
1980-10-26 07:06:24,1,-13.075,2.9375,-0.25,1.12771,1,1,46760.9,121049.0,1700,0.73045814,-5.4597311,44.888916,91.994385,8.64378,405.249,-10.1488,21.1117,27.7843,44.7033
1980-10-26 07:07:45,1,-10.6875,0.6,-7.0375,1.57827,1,1,57235.1,134505.0,1700,0.73045146,-5.4598036,44.87738,91.994568,8.91637,407.306,-31.1753,-15.4749,30.739,47.1224
1980-10-26 07:09:06,1,-3.0875,-1.8125,-11.7125,1.2271,1,1,61860.6,146400.0,1700,0.73043817,-5.4599495,44.866058,91.994949,8.21863,468.672,-53.3562,-74.623,31.9569,49.1618
1980-10-26 07:10:27,1,-8.9,1.925,-8.2,2.93673,1,1,41509.1,142528.0,1700,0.7304315,-5.460022,44.854523,91.995132,8.96098,412.841,-17.8129,-22.8104,26.1776,48.5074
1980-10-26 07:11:48,1,-11.0889,2.53333,-5.94444,2.11584,1,1,59116.1,127156.0,1700,0.73042488,-5.4600945,44.842987,91.995316,8.89487,432.08,-19.0028,-46.0933,31.24,45.817
1980-10-26 07:13:09,1,-11.025,-1.6625,-7.3125,1.18651,1,1,49754.5,143912.0,1700,0.73041153,-5.4602404,44.827728,91.995697,9.39289,410.487,-38.5144,-29.4861,28.6599,48.7424
1980-10-26 07:14:30,1,-12.0375,-0.2375,-5.9,0.857139,1,1,51314.5,134873.0,1700,0.73040491,-5.4603128,44.816193,91.99588,9.47279,407.462,-32.5175,-24.9303,29.1057,47.1869
1980-10-26 07:15:51,1,-13.9375,-3.775,-1.1625,1.62375,1,1,48732.8,139793.0,1700,0.73039824,-5.4603863,44.804688,91.996078,9.66211,397.689,-53.8448,13.6181,28.3641,48.0398
1980-10-26 07:17:12,1,-13.475,-4.4875,-2.75,1.52331,1,1,52221.5,125624.0,1700,0.73038495,-5.4605312,44.793335,91.996445,8.82749,401.083,-56.3366,-10.3172,29.3618,45.5401
1980-10-26 07:18:33,1,-10.35,2.15,-6.75,1.32193,1,1,41837.3,173723.0,1700,0.73037827,-5.4606047,44.781799,91.996643,10.6783,413.549,-13.037,-23.0602,26.2809,53.5534
1980-10-26 07:19:54,-1,nan,nan,nan,nan,1,4,nan,nan,1700,0.73037159,-5.4606771,44.770264,91.996826,nan,nan,nan,nan,nan,nan
1980-10-26 07:21:15,1,-7.125,7.0875,-6.1125,1.11538,1,1,50965.1,165635.0,1700,0.7303583,-5.4608231,44.755035,91.997208,9.66116,439.305,9.91,-30.5313,29.0064,52.2918
1980-10-26 07:22:36,1,-13.3375,-6.4375,1.8375,1.006,1,1,62217.7,127200.0,1700,0.73035169,-5.4608955,44.7435,91.997391,8.62069,406.034,-76.8273,31.8636,32.049,45.8249
1980-10-26 07:23:57,1,-13.6625,-2.1625,3.425,2.09859,1,1,65895.1,129125.0,1700,0.73034501,-5.460968,44.731964,91.997574,9.26579,415.041,-6.76196,30.2511,32.9826,46.1704
1980-10-26 07:25:18,1,-13.9,-4.05,3.1,0.934077,1,1,49995.3,127777.0,1700,0.73033172,-5.4611139,44.720612,91.997955,9.42674,402.854,-61.239,33.1533,28.7291,45.9287
1980-10-26 07:26:39,1,-14.275,-2.4625,1.9625,1.62836,1,1,57721.6,120415.0,1700,0.73032504,-5.4611864,44.709076,91.998138,9.31866,400.249,-38.4166,22.0507,30.8693,44.5859
1980-10-26 07:28:00,1,-13.725,0.775,-1.4,0.9676,1,1,41086.2,142812.0,1700,0.73031175,-5.4613323,44.697754,91.99852,9.07005,401.039,-34.5782,12.6055,26.0439,48.5556
1980-10-26 07:29:21,1,-7.5375,7.7625,-4.5125,0.960875,1,1,58785.5,149354.0,1700,0.73030508,-5.4614048,44.682312,91.998703,8.92827,447.637,18.7154,-23.7391,31.1525,49.6554
1980-10-26 07:30:42,1,-6.2,9.225,-3.65,1.19033,1,1,47726.2,127738.0,1700,0.7302984,-5.4614782,44.670776,91.998901,8.52378,441.99,18.3894,-20.9494,28.0696,45.9216
1980-10-26 07:32:03,1,-3.22222,10.3667,-3.53333,1.35792,1,1,58791.4,146245.0,1700,0.73028511,-5.4616232,44.659424,91.999268,9.98227,458.898,28.398,-13.2069,31.1541,49.1359
1980-10-26 07:33:24,-1,nan,nan,nan,nan,1,4,nan,nan,1700,0.73027849,-5.4616966,44.647919,91.999466,nan,nan,nan,nan,nan,nan
1980-10-26 07:34:45,1,-9.3375,6.45,-4.2125,2.58233,1,1,43337.0,131340.0,1700,0.73027182,-5.4617691,44.636383,91.999649,8.85766,416.717,-0.855062,-5.89459,26.7478,46.5646
1980-10-26 07:36:06,1,-10.05,5.0875,-4.625,2.99966,1,1,51755.9,113794.0,1700,0.73025852,-5.461915,44.625031,92.000031,6.44328,447.325,25.891,-12.0164,29.2306,43.3428
1980-10-26 07:37:27,1,-11.725,3.4625,-4.4,0.376456,1,1,42787.2,141387.0,1700,0.73025185,-5.4619875,44.609589,92.000214,9.2128,409.01,-14.0447,-8.46942,26.5775,48.3128
1980-10-26 07:38:48,1,-11.4125,4.35,-3.8125,1.07921,1,1,43125.5,151952.0,1700,0.73024517,-5.46206,44.598053,92.000397,9.34856,407.38,-16.2354,-10.095,26.6824,50.0853
1980-10-26 07:40:09,1,-7.8125,5.55,-7.275,0.585635,1,1,46485.4,154982.0,1700,0.73023188,-5.4622059,44.586731,92.000778,9.35648,436.186,1.89177,-32.9452,27.7023,50.5823
1980-10-26 07:41:30,1,-7.5125,6.425,-6.6375,1.38485,1,1,45532.9,157392.0,1700,0.73022527,-5.4622784,44.575195,92.000961,9.44468,435.252,2.49598,-31.9271,27.417,50.9741
1980-10-26 07:42:51,1,-6.4875,7.65,-6.25,0.541843,1,1,49665.8,145795.0,1700,0.73021859,-5.4623518,44.56366,92.00116,9.2707,439.602,11.7749,-28.6726,28.6343,49.0601
1980-10-26 07:44:12,1,-9.45,7.9125,-0.1,1.10163,1,1,48771.2,140398.0,1700,0.7302053,-5.4624968,44.552307,92.001526,8.96715,428.967,18.2738,10.9668,28.3752,48.1436
1980-10-26 07:45:33,1,-8.7875,4.625,4.1875,6.29913,1,1,55570.5,118422.0,1700,0.73019862,-5.4625702,44.540802,92.001724,8.37049,432.14,20.7907,10.8463,30.2887,44.2154
1980-10-26 07:46:54,1,-6.9625,8.1125,5.1875,2.96007,1,1,48569.7,144403.0,1700,0.73019195,-5.4626427,44.52536,92.001907,9.075,425.7,4.30987,51.0065,28.3166,48.8253
1980-10-26 07:48:15,1,-10.65,5.0125,5.6125,1.13013,1,1,60349.4,150491.0,1700,0.73017865,-5.4627886,44.514008,92.002289,9.45384,432.064,2.42987,58.2384,31.5642,49.844
1980-10-26 07:49:36,-1,nan,nan,nan,nan,1,4,nan,nan,1700,0.73017198,-5.4628611,44.502472,92.002472,nan,nan,nan,nan,nan,nan
1980-10-26 07:50:57,1,-8.6,6.4125,-6.05,1.05052,1,1,45191.5,151587.0,1700,0.73016536,-5.4629335,44.490936,92.002655,9.53923,427.488,-5.79979,-20.9253,27.3141,50.0252
1980-10-26 07:52:18,1,-9.6875,4.975,-6.525,0.710524,1,1,53925.2,144082.0,1700,0.73015207,-5.4630795,44.479614,92.003036,9.58675,430.007,0.16082,-11.873,29.8369,48.7712
1980-10-26 07:53:39,1,-9.8625,4.6625,-6.575,0.843542,1,1,43850.8,129560.0,1700,0.73014539,-5.4631519,44.468079,92.00322,8.77432,426.307,-4.13534,-20.4456,26.9059,46.2481
1980-10-26 07:55:00,1,-9.2875,2.2375,-7.875,1.30012,1,1,42508.3,149371.0,1700,0.7301321,-5.4632978,44.45282,92.003601,8.71882,421.179,-23.965,-36.6094,26.4908,49.6582
1980-10-26 07:56:21,1,-11.1625,0.5875,-6.9625,1.45113,1,1,47733.6,159574.0,1700,0.73012543,-5.4633703,44.441284,92.003784,8.76311,407.606,-27.4896,-14.1285,28.0718,51.3261
1980-10-26 07:57:42,1,-9.8375,2.5375,-8.2625,0.670471,1,1,60697.7,142828.0,1700,0.73011875,-5.4634438,44.429779,92.003983,9.04633,421.47,-22.534,-30.3865,31.6551,48.5584
1980-10-26 07:59:03,1,-9.95,2.025,-8.2625,0.930977,1,1,42458.0,134975.0,1700,0.73010546,-5.4635887,44.418427,92.004349,8.3955,428.052,-31.8429,-31.0513,26.4751,47.2046
1980-10-26 08:00:24,1,-9.7875,3.45,-7.5125,0.380378,1,1,41754.1,132231.0,1700,0.73009884,-5.4636621,44.406891,92.004547,9.19393,426.647,-18.2445,-24.4968,26.2547,46.7223
1980-10-26 08:01:45,1,-10.5625,3.4875,-6.8375,0.760448,1,1,40184.1,129699.0,1700,0.73009217,-5.4637346,44.395355,92.00473,8.8327,422.811,-19.1995,-19.4845,25.7564,46.2729
1980-10-26 08:03:06,1,-10.425,5.6875,-4.6,1.90407,1,1,41680.1,131425.0,1700,0.73007882,-5.4638796,44.380127,92.005112,9.00741,413.088,-14.4946,-7.49149,26.2314,46.5797
1980-10-26 08:04:27,1,-7.8375,5.425,-7.4375,3.21038,1,1,56465.4,140724.0,1700,0.7300722,-5.463953,44.368591,92.005295,9.57946,444.381,7.56407,-15.1973,30.5316,48.1994
1980-10-26 08:05:48,1,-9.1625,6.425,-5.7625,0.535315,1,1,40452.7,134244.0,1700,0.73006552,-5.4640255,44.357056,92.005493,8.91986,435.297,0.721468,-15.9794,25.8423,47.0767
1980-10-26 08:07:09,1,-9.1625,5.45,-6.375,1.47283,1,1,41689.7,134887.0,1700,0.73005217,-5.4641705,44.345703,92.005859,9.22721,431.39,-3.9741,-16.3697,26.2345,47.1892
1980-10-26 08:08:30,1,-6.3375,2.25,-10.65,0.43857,1,1,42002.6,139522.0,1700,0.73004556,-5.4642439,44.334198,92.006058,9.31286,448.348,-27.4441,-47.0483,26.3327,47.9932
1980-10-26 08:09:51,1,-6.1875,-0.2875,-11.225,1.08929,1,1,45284.4,139324.0,1700,0.73003888,-5.4643164,44.322662,92.006241,8.93406,443.461,-38.3322,-47.3235,27.3421,47.9591
1980-10-26 08:11:12,1,-3.68889,3.32222,-10.7444,1.28005,1,1,33135.6,125129.0,1700,0.73002553,-5.4644623,44.307404,92.006622,8.42264,465.616,-18.88,-53.0337,23.3887,45.4504
1980-10-26 08:12:33,1,-5.51111,2.86667,-10.0889,2.30983,1,1,46330.3,136880.0,1700,0.73001891,-5.4645348,44.295868,92.006805,8.86015,447.756,-20.7125,-43.5707,27.6561,47.5366
1980-10-26 08:13:54,1,-8.7,7.5125,-4.1625,0.750625,1,1,57620.5,140478.0,1700,0.73001224,-5.4646072,44.284363,92.007004,9.64686,436.588,13.0303,25.424,30.8423,48.1572
1980-10-26 08:15:15,1,-9.325,0.8625,-8.9125,1.20533,1,1,42541.6,114769.0,1700,0.72999895,-5.4647532,44.27301,92.007385,7.76503,431.297,-44.3375,-39.3413,26.5012,43.5282
1980-10-26 08:16:36,1,-5.74444,1.58889,-10.7111,1.83545,1,1,46437.7,136160.0,1700,0.72999227,-5.4648256,44.261475,92.007568,8.74125,441.296,-31.139,-45.7314,27.6881,47.4114
1980-10-26 08:17:57,-1,nan,nan,nan,nan,1,4,nan,nan,1700,0.72998559,-5.4648981,44.249939,92.007751,nan,nan,nan,nan,nan,nan
1980-10-26 08:19:18,1,-8.825,5.0125,-7.3375,0.90709,1,1,44077.1,131928.0,1700,0.7299723,-5.465044,44.234711,92.008133,8.93732,433.737,-5.50556,-21.8609,26.9752,46.6689
1980-10-26 08:20:39,1,-8.7875,6.7625,-5.1375,1.12285,1,1,45202.6,138867.0,1700,0.72996563,-5.4651165,44.223175,92.008331,9.095,431.149,3.22556,-5.29378,27.3174,47.8803
1980-10-26 08:22:00,1,-8.2875,7.125,-5.5,0.439282,1,1,42962.1,130732.0,1700,0.72995228,-5.4652624,44.211823,92.008698,8.84186,438.28,3.70342,-16.0789,26.6318,46.4567
1980-10-26 08:23:21,1,-9.5,7.35,-3.45,1.06654,1,1,49441.9,151856.0,1700,0.72994566,-5.4653349,44.200317,92.008896,10.1971,433.486,9.03096,7.73929,28.5697,50.0695
1980-10-26 08:24:42,1,-10.2125,7.475,-0.45,0.756947,1,1,41538.3,129579.0,1700,0.72993898,-5.4654074,44.188782,92.009079,9.10636,428.845,7.69946,25.5853,26.1868,46.2514
1980-10-26 08:26:03,1,-11.3375,5.3,-3.425,0.757772,1,1,41561.4,140144.0,1700,0.72992563,-5.4655533,44.177429,92.00946,8.84184,422.751,-11.1673,-7.56157,26.1941,48.1
1980-10-26 08:27:24,1,-10.6625,4.7125,-4.5125,2.88653,1,1,67525.1,115530.0,1700,0.72991902,-5.4656258,44.161987,92.009644,9.58861,424.397,1.96511,25.2534,33.388,43.6723
1980-10-26 08:28:45,1,-9.825,3.35,-7.45,0.560692,1,1,40095.2,125115.0,1700,0.72991234,-5.4656982,44.150482,92.009842,8.58064,426.509,-16.0166,-22.9604,25.7279,45.4479
1980-10-26 08:30:06,-1,nan,nan,nan,nan,1,4,nan,nan,1700,0.72989905,-5.4658442,44.13913,92.010223,nan,nan,nan,nan,nan,nan
1980-10-26 08:31:27,1,-9.075,6.9625,-5.0125,0.557057,1,1,47596.4,119943.0,1700,0.72989237,-5.4659166,44.127594,92.010406,9.03253,434.923,2.23363,-12.267,28.0314,44.4985
1980-10-26 08:32:48,1,-9.5625,4.875,-6.75,1.17547,1,1,43022.8,137582.0,1700,0.7298857,-5.4659901,44.116058,92.01059,9.52926,427.372,-17.3561,-22.226,26.6506,47.6583
1980-10-26 08:34:09,1,-8.9375,0.5875,-9.2625,1.02508,1,1,47837.7,141130.0,1700,0.72987241,-5.466135,44.104736,92.010971,9.52452,428.194,-27.7972,-31.5847,28.1024,48.2688
1980-10-26 08:35:30,1,-9.0,-1.9875,-9.3875,1.41852,1,1,44465.7,135907.0,1700,0.72986573,-5.4662075,44.089294,92.011169,8.53519,429.208,-50.4095,-40.9142,27.0938,47.3672
1980-10-26 08:36:51,1,-7.075,1.9875,-9.8125,0.607505,1,1,40282.9,138109.0,1700,0.72985905,-5.4662809,44.077759,92.011353,8.51913,439.013,-26.7269,-42.6201,25.788,47.7496